SCOUT A R/B, 2811

Orbit data source: Space-Track

SCOUT A R/B, 2811 is space debris in LEO originally from a launch on Thu, 18 May 1967 UTC launched from the Air Force Western Test Range (AFWTR). Debris objects in space refer to the collection of defunct objects orbiting the Earth. Examples of debris include non-operational satellites, rocket bodies, and fragments generated from explosions, collisions, or faulty payload assembly.

Loading next visibility...
Identifier
2811, 1967-048B
Orbit
LEO
Last TLE update
7 hours ago
Origin
Manufacturer
ABL
Mission
Spacecraft
Bus & Motor
ALTAIR, Unknown motor
Mass
33 kg wet, 33 kg dry
Launch date (UTC)
1967-05-18 (58 years ago)
Launch vehicle
Unknown
Launch site
Air Force Western Test Range (AFWTR)
Object type
Payload
Rocket body
Debris
Shape & HBR
Cyl, 1.5 m
Radar Cross Section
0.687 m², Medium (>0.1 m² and < 1m²)

Expand to show TLE details & history

TLE from 7 hours ago
0 SCOUT A R/B
1 02811U 67048B   25182.55087564  .00000045  00000-0  55994-4 0  9990
2 02811  89.6770   2.2148 0017565 293.2710 128.1705 13.49278102859223
Epoch: 2025-07-01T13:13Z
TLE epoch observation values (Epoch: 2025-07-01T13:13:15.655Z)
Latitude
61.68523°
Longitude
-115.34869°
Altitude
1,093.663 km
Speed
7.307 km/s
True Right ascension
00h 11m 14s
True Declination
61° 32' 52"
Sunlit
Object was in daylight at epoch
Visualization orbit readout
Latitude
62.60174°
Longitude
-115.33479°
Altitude
1,094.165 km
Speed
7.307 km/s
Apparent Right ascension
21h 41m 51s
Apparent Declination
19° 30' 41"
Sunlit
Object is in daylight
Visualization observer readout
Local Sidereal Time
08:00:45
Azimuth
333.385° NNW
Elevation
-26.068°
Doppler factor
1
Orbital elements
Apogee altitude
1,085.053 km
Perigee altitude
1,058.881 km
Semi-major axis
7,450.104 km
Eccentricity
0.00176
Inclination
89.677°
RAAN
2.2148°
Arg. of periapsis
293.271°
True anomaly
Unknown
Mean anomaly
128.1705°
Eccentric anomaly
Unknown
Mean motion
3.3752 °/min
Orbital period
106.66 mins
BSTAR
0.000055994
Loading maneuver chart data...
Loading SW <> Apogee altitude chart data...
Loading historical data...
Loading historical data...
Loading historical data...
Loading historical data...
Loading historical data...
Loading historical data...
Loading historical data...

SCOUT A R/B Visibility forecast

Observer location: undefined°, undefined°

Span
Click to sort rows by Start time (UTC) header in descending order
Start Az.
Max El. time (UTC)
Max El. Az.
Max El.
End time (UTC)
End Az.
12 mins2025-07-02 00:11:40.990Z5.621° NNE2025-07-02 00:17:40.990Z121.83° SE44.074°2025-07-02 00:23:40.990Z177.434° S
6 mins2025-07-02 02:00:40.990Z313.166° NW2025-07-02 02:02:40.990Z293.22° NW16.092°2025-07-02 02:06:40.990Z254.717° W
12 mins2025-07-02 12:09:40.990Z167.525° S2025-07-02 12:14:40.990Z116.504° SE43.534°2025-07-02 12:21:40.990Z2.082° NNE
6 mins2025-07-02 13:59:40.990Z256.069° W2025-07-02 14:02:40.990Z286.809° WNW16.306°2025-07-02 14:05:40.990Z315.883° NNW
|